Location: Astronomy Club of Akron Observatory
(40.9700°N, 81.5606°W)
Time: 00:20:29
(UTC-04:00)

ISS - Pass Details

Date: 18 July 2018
Orbit: 402 x 408 km, 51.6° (Epoch: 23 July)

Event Time Altitude Azimuth Distance (km) Brightness Sun altitude
Exits shadow 01:00:21 20° 356° (N) 1,003 -1.1 -27.6°
Drops below altitude 10° 01:02:21 10° 32° (NNE) 1,469 -0.4 -27.6°
Sets 01:04:47 0° 49° (NE) 2,333 0.5 -27.7°
